Time,TemperatureF,DewpointF,PressureIn,WindDirection,WindDirectionDegrees,WindSpeedMPH,WindSpeedGustMPH,Humidity,HourlyPrecipIn,Conditions,Clouds,dailyrainin,SoftwareType,DateUTC
2013-02-03 00:01:00,34.0,34.0,30.26,SSW,207,0.0,0.0,100,0.00,,,0.00,,2013-02-03 08:01:00,
2013-02-03 00:11:00,34.0,34.0,30.26,SSW,207,0.0,0.0,100,0.00,,,0.00,,2013-02-03 08:11:00,
2013-02-03 00:22:00,34.0,34.0,30.27,SSW,210,0.0,1.0,100,0.00,,,0.00,,2013-02-03 08:22:00,
2013-02-03 00:32:00,34.0,34.0,30.27,WSW,253,0.0,1.0,100,0.00,,,0.00,,2013-02-03 08:32:00,
2013-02-03 00:41:00,34.0,34.0,30.27,WSW,253,0.0,1.0,100,0.00,,,0.00,,2013-02-03 08:41:00,
2013-02-03 00:52:00,34.0,34.0,30.25,WSW,253,0.0,1.0,100,0.00,,,0.00,,2013-02-03 08:52:00,
2013-02-03 01:02:00,34.0,34.0,30.25,SSW,207,0.0,3.0,100,0.00,,,0.00,,2013-02-03 09:02:00,
2013-02-03 01:11:00,34.0,34.0,30.25,SSW,207,0.0,3.0,100,0.00,,,0.00,,2013-02-03 09:11:00,
2013-02-03 01:21:00,34.0,34.0,30.26,SSW,200,0.0,1.0,100,0.00,,,0.00,,2013-02-03 09:21:00,
2013-02-03 01:31:00,34.0,34.0,30.27,WNW,302,1.0,3.0,100,0.00,,,0.00,,2013-02-03 09:31:00,
2013-02-03 01:41:00,34.0,34.0,30.27,WNW,302,1.0,3.0,100,0.00,,,0.00,,2013-02-03 09:41:00,
2013-02-03 01:52:00,34.0,34.0,30.27,WNW,303,0.0,1.0,100,0.00,,,0.00,,2013-02-03 09:52:00,
2013-02-03 02:01:00,34.0,34.0,30.26,WNW,302,0.0,0.0,100,0.00,,,0.00,,2013-02-03 10:01:00,
2013-02-03 02:11:00,34.0,34.0,30.26,WNW,302,0.0,0.0,100,0.00,,,0.00,,2013-02-03 10:11:00,
2013-02-03 02:21:00,34.0,34.0,30.25,WNW,302,0.0,0.0,100,0.00,,,0.00,,2013-02-03 10:21:00,
2013-02-03 02:31:00,35.0,35.0,30.25,WNW,302,0.0,1.0,100,0.00,,,0.00,,2013-02-03 10:31:00,
2013-02-03 02:41:00,35.0,35.0,30.25,WNW,302,0.0,1.0,100,0.00,,,0.00,,2013-02-03 10:41:00,
2013-02-03 02:52:00,36.0,36.0,30.24,WNW,302,0.0,1.0,100,0.00,,,0.00,,2013-02-03 10:52:00,
2013-02-03 03:01:00,37.0,37.0,30.26,WNW,302,0.0,0.0,100,0.00,,,0.00,,2013-02-03 11:01:00,
2013-02-03 03:11:00,37.0,37.0,30.26,WNW,302,0.0,0.0,100,0.00,,,0.00,,2013-02-03 11:11:00,
2013-02-03 03:22:00,38.0,38.0,30.25,WNW,302,0.0,0.0,100,0.00,,,0.00,,2013-02-03 11:22:00,
2013-02-03 03:31:00,39.0,39.0,30.25,SSW,211,0.0,1.0,100,0.00,,,0.00,,2013-02-03 11:31:00,
2013-02-03 03:41:00,39.0,39.0,30.25,SSW,211,0.0,1.0,100,0.00,,,0.00,,2013-02-03 11:41:00,
2013-02-03 03:52:00,39.0,39.0,30.23,SSW,211,0.0,1.0,100,0.00,,,0.00,,2013-02-03 11:52:00,
2013-02-03 04:02:00,39.0,39.0,30.23,South,184,0.0,1.0,100,0.00,,,0.00,,2013-02-03 12:02:00,
2013-02-03 04:11:00,39.0,39.0,30.23,South,184,0.0,1.0,100,0.00,,,0.00,,2013-02-03 12:11:00,
2013-02-03 04:21:00,39.0,39.0,30.24,South,184,0.0,1.0,100,0.00,,,0.00,,2013-02-03 12:21:00,
2013-02-03 04:32:00,39.0,39.0,30.25,South,184,0.0,0.0,100,0.00,,,0.00,,2013-02-03 12:32:00,
2013-02-03 04:42:00,39.0,39.0,30.25,South,184,0.0,0.0,100,0.00,,,0.00,,2013-02-03 12:42:00,
2013-02-03 04:53:00,39.0,39.0,30.25,South,184,0.0,0.0,100,0.00,,,0.00,,2013-02-03 12:53:00,
2013-02-03 05:02:00,40.0,40.0,30.25,South,183,0.0,0.0,100,0.00,,,0.00,,2013-02-03 13:02:00,
2013-02-03 05:11:00,40.0,40.0,30.25,South,183,0.0,0.0,100,0.00,,,0.00,,2013-02-03 13:11:00,
2013-02-03 05:21:00,40.0,40.0,30.25,South,183,0.0,0.0,100,0.00,,,0.00,,2013-02-03 13:21:00,
2013-02-03 05:32:00,40.0,40.0,30.25,South,184,0.0,0.0,100,0.00,,,0.00,,2013-02-03 13:32:00,
2013-02-03 05:41:00,40.0,40.0,30.25,South,184,0.0,0.0,100,0.00,,,0.00,,2013-02-03 13:41:00,
2013-02-03 05:52:00,40.0,40.0,30.25,South,184,0.0,0.0,100,0.00,,,0.00,,2013-02-03 13:52:00,
2013-02-03 06:02:00,41.0,41.0,30.24,South,183,0.0,0.0,100,0.00,,,0.00,,2013-02-03 14:02:00,
2013-02-03 06:11:00,41.0,41.0,30.24,South,183,0.0,0.0,100,0.00,,,0.00,,2013-02-03 14:11:00,
2013-02-03 06:21:00,41.0,41.0,30.24,South,184,0.0,1.0,100,0.00,,,0.00,,2013-02-03 14:21:00,
2013-02-03 06:31:00,41.0,41.0,30.25,South,184,0.0,0.0,100,0.00,,,0.00,,2013-02-03 14:31:00,
2013-02-03 06:42:00,41.0,41.0,30.25,South,184,0.0,0.0,100,0.00,,,0.00,,2013-02-03 14:42:00,
2013-02-03 06:52:00,41.0,41.0,30.26,South,184,0.0,0.0,100,0.00,,,0.00,,2013-02-03 14:52:00,
2013-02-03 07:02:00,41.0,41.0,30.26,South,183,0.0,0.0,100,0.00,,,0.00,,2013-02-03 15:02:00,
2013-02-03 07:11:00,41.0,41.0,30.26,South,183,0.0,0.0,100,0.00,,,0.00,,2013-02-03 15:11:00,
2013-02-03 07:21:00,41.0,41.0,30.25,South,184,0.0,1.0,100,0.01,,,0.01,,2013-02-03 15:21:00,
2013-02-03 07:32:00,41.0,41.0,30.25,South,184,0.0,1.0,100,0.01,,,0.01,,2013-02-03 15:32:00,
2013-02-03 07:41:00,41.0,41.0,30.25,South,184,0.0,1.0,100,0.01,,,0.01,,2013-02-03 15:41:00,
2013-02-03 07:52:00,41.0,41.0,30.26,South,184,0.0,0.0,100,0.01,,,0.01,,2013-02-03 15:52:00,
2013-02-03 08:02:00,41.0,41.0,30.26,South,184,0.0,0.0,100,0.01,,,0.01,,2013-02-03 16:02:00,
2013-02-03 08:11:00,41.0,41.0,30.26,South,184,0.0,0.0,100,0.01,,,0.01,,2013-02-03 16:11:00,
2013-02-03 08:21:00,41.0,41.0,30.26,South,184,0.0,0.0,100,0.00,,,0.01,,2013-02-03 16:21:00,
2013-02-03 08:32:00,41.0,41.0,30.27,South,183,0.0,0.0,100,0.00,,,0.01,,2013-02-03 16:32:00,
2013-02-03 08:41:00,41.0,41.0,30.27,South,183,0.0,0.0,100,0.00,,,0.01,,2013-02-03 16:41:00,
2013-02-03 08:52:00,41.0,41.0,30.27,SE,142,0.0,0.0,100,0.01,,,0.02,,2013-02-03 16:52:00,
2013-02-03 09:02:00,41.0,41.0,30.27,SE,142,0.0,1.0,100,0.02,,,0.03,,2013-02-03 17:02:00,
2013-02-03 09:11:00,41.0,41.0,30.27,SE,142,0.0,1.0,100,0.02,,,0.03,,2013-02-03 17:11:00,
2013-02-03 09:21:00,41.0,41.0,30.27,SE,142,0.0,0.0,100,0.02,,,0.03,,2013-02-03 17:21:00,
2013-02-03 09:31:00,42.0,42.0,30.28,SE,141,0.0,0.0,100,0.02,,,0.03,,2013-02-03 17:31:00,
2013-02-03 09:41:00,42.0,42.0,30.28,SE,141,0.0,0.0,100,0.02,,,0.03,,2013-02-03 17:41:00,
2013-02-03 09:52:00,42.0,42.0,30.27,SE,141,0.0,1.0,100,0.01,,,0.03,,2013-02-03 17:52:00,
2013-02-03 10:02:00,42.0,42.0,30.27,SE,142,0.0,1.0,100,0.00,,,0.03,,2013-02-03 18:02:00,
2013-02-03 10:11:00,42.0,42.0,30.27,SE,142,0.0,1.0,100,0.00,,,0.03,,2013-02-03 18:11:00,
2013-02-03 10:23:00,42.0,42.0,30.27,SE,142,0.0,1.0,100,0.00,,,0.03,,2013-02-03 18:23:00,
2013-02-03 10:32:00,43.0,43.0,30.26,SE,136,0.0,1.0,100,0.00,,,0.03,,2013-02-03 18:32:00,
2013-02-03 10:41:00,43.0,43.0,30.26,SE,136,0.0,1.0,100,0.00,,,0.03,,2013-02-03 18:41:00,
2013-02-03 10:52:00,43.0,43.0,30.27,SE,136,0.0,1.0,100,0.00,,,0.03,,2013-02-03 18:52:00,
2013-02-03 11:02:00,43.0,43.0,30.27,SE,126,0.0,1.0,100,0.00,,,0.03,,2013-02-03 19:02:00,
2013-02-03 11:11:00,43.0,43.0,30.27,SE,126,0.0,1.0,100,0.00,,,0.03,,2013-02-03 19:11:00,
2013-02-03 11:21:00,43.0,43.0,30.27,SSE,165,0.0,2.0,100,0.00,,,0.03,,2013-02-03 19:21:00,
2013-02-03 11:31:00,43.0,43.0,30.27,SSE,165,0.0,1.0,100,0.00,,,0.03,,2013-02-03 19:31:00,
2013-02-03 11:41:00,43.0,43.0,30.27,SSE,165,0.0,1.0,100,0.00,,,0.03,,2013-02-03 19:41:00,
2013-02-03 11:52:00,43.0,43.0,30.27,SSE,165,0.0,0.0,100,0.00,,,0.03,,2013-02-03 19:52:00,
2013-02-03 12:01:00,44.0,44.0,30.27,SSE,165,0.0,1.0,100,0.00,,,0.03,,2013-02-03 20:01:00,
2013-02-03 12:11:00,44.0,44.0,30.27,SSE,165,0.0,1.0,100,0.00,,,0.03,,2013-02-03 20:11:00,
2013-02-03 12:21:00,44.0,44.0,30.26,ESE,106,0.0,2.0,100,0.00,,,0.03,,2013-02-03 20:21:00,
2013-02-03 12:32:00,44.0,44.0,30.25,ESE,107,0.0,2.0,100,0.00,,,0.03,,2013-02-03 20:32:00,
2013-02-03 12:42:00,44.0,44.0,30.25,ESE,107,0.0,2.0,100,0.00,,,0.03,,2013-02-03 20:42:00,
2013-02-03 12:52:00,44.0,44.0,30.25,SE,146,0.0,1.0,100,0.00,,,0.03,,2013-02-03 20:52:00,
2013-02-03 13:02:00,45.0,45.0,30.25,SE,146,0.0,2.0,100,0.00,,,0.03,,2013-02-03 21:02:00,
2013-02-03 13:11:00,45.0,45.0,30.25,SE,146,0.0,2.0,100,0.00,,,0.03,,2013-02-03 21:11:00,
2013-02-03 13:21:00,45.0,45.0,30.25,SE,146,0.0,0.0,100,0.00,,,0.03,,2013-02-03 21:21:00,
2013-02-03 13:32:00,45.0,45.0,30.25,South,178,0.0,3.0,100,0.00,,,0.03,,2013-02-03 21:32:00,
2013-02-03 13:42:00,45.0,45.0,30.25,South,178,0.0,3.0,100,0.00,,,0.03,,2013-02-03 21:42:00,
2013-02-03 13:52:00,45.0,45.0,30.25,SSW,202,0.0,3.0,100,0.00,,,0.03,,2013-02-03 21:52:00,
2013-02-03 14:01:00,45.0,45.0,30.24,SSW,202,0.0,2.0,100,0.00,,,0.03,,2013-02-03 22:01:00,
2013-02-03 14:11:00,45.0,45.0,30.24,SSW,202,0.0,2.0,100,0.00,,,0.03,,2013-02-03 22:11:00,
2013-02-03 14:21:00,46.0,46.0,30.22,SSW,206,0.0,2.0,99,0.00,,,0.03,,2013-02-03 22:21:00,
2013-02-03 14:31:00,46.0,45.0,30.22,SSW,206,0.0,1.0,96,0.00,,,0.03,,2013-02-03 22:31:00,
2013-02-03 14:41:00,46.0,45.0,30.22,SSW,206,0.0,1.0,96,0.00,,,0.03,,2013-02-03 22:41:00,
2013-02-03 14:52:00,46.0,45.0,30.22,SSE,156,0.0,2.0,95,0.00,,,0.03,,2013-02-03 22:52:00,
2013-02-03 15:01:00,46.0,44.0,30.22,SSW,200,0.0,2.0,94,0.00,,,0.03,,2013-02-03 23:01:00,
2013-02-03 15:11:00,46.0,44.0,30.22,SSW,200,0.0,2.0,94,0.00,,,0.03,,2013-02-03 23:11:00,
2013-02-03 15:21:00,46.0,44.0,30.22,SSW,211,0.0,4.0,94,0.00,,,0.03,,2013-02-03 23:21:00,
2013-02-03 15:32:00,46.0,44.0,30.22,SSW,201,1.0,3.0,94,0.00,,,0.03,,2013-02-03 23:32:00,
2013-02-03 15:41:00,46.0,44.0,30.22,SSW,201,1.0,3.0,94,0.00,,,0.03,,2013-02-03 23:41:00,
2013-02-03 15:52:00,46.0,44.0,30.22,SSW,202,0.0,3.0,94,0.00,,,0.03,,2013-02-03 23:52:00,
2013-02-03 16:01:00,46.0,44.0,30.22,SSW,202,0.0,1.0,93,0.00,,,0.03,,2013-02-04 00:01:00,
2013-02-03 16:11:00,46.0,44.0,30.22,SSW,202,0.0,1.0,93,0.00,,,0.03,,2013-02-04 00:11:00,
2013-02-03 16:21:00,46.0,44.0,30.22,South,186,0.0,1.0,93,0.00,,,0.03,,2013-02-04 00:21:00,
2013-02-03 16:31:00,45.0,43.0,30.22,SSW,192,0.0,3.0,93,0.00,,,0.03,,2013-02-04 00:31:00,
2013-02-03 16:41:00,45.0,43.0,30.22,SSW,192,0.0,3.0,93,0.00,,,0.03,,2013-02-04 00:41:00,
2013-02-03 16:52:00,45.0,43.0,30.22,SSW,194,0.0,2.0,93,0.00,,,0.03,,2013-02-04 00:52:00,
2013-02-03 17:01:00,45.0,43.0,30.22,SSW,194,0.0,1.0,94,0.00,,,0.03,,2013-02-04 01:01:00,
2013-02-03 17:11:00,45.0,43.0,30.22,SSW,194,0.0,1.0,94,0.00,,,0.03,,2013-02-04 01:11:00,
2013-02-03 17:21:00,45.0,43.0,30.22,SSW,194,0.0,0.0,94,0.00,,,0.03,,2013-02-04 01:21:00,
2013-02-03 17:31:00,45.0,43.0,30.22,SSW,194,0.0,1.0,94,0.00,,,0.03,,2013-02-04 01:31:00,
2013-02-03 17:41:00,45.0,43.0,30.22,SSW,194,0.0,1.0,94,0.00,,,0.03,,2013-02-04 01:41:00,
2013-02-03 17:52:00,45.0,44.0,30.22,SSW,194,0.0,0.0,95,0.00,,,0.03,,2013-02-04 01:52:00,
2013-02-03 18:01:00,44.0,43.0,30.22,NE,40,0.0,1.0,95,0.00,,,0.03,,2013-02-04 02:01:00,
2013-02-03 18:11:00,44.0,43.0,30.22,NE,40,0.0,1.0,95,0.00,,,0.03,,2013-02-04 02:11:00,
2013-02-03 18:21:00,44.0,43.0,30.22,NE,40,0.0,1.0,96,0.01,,,0.04,,2013-02-04 02:21:00,
2013-02-03 18:31:00,44.0,43.0,30.22,NE,40,0.0,1.0,96,0.02,,,0.05,,2013-02-04 02:31:00,
2013-02-03 18:41:00,44.0,43.0,30.22,NE,40,0.0,1.0,96,0.02,,,0.05,,2013-02-04 02:41:00,
2013-02-03 18:52:00,44.0,43.0,30.21,NE,40,0.0,0.0,97,0.02,,,0.05,,2013-02-04 02:52:00,
2013-02-03 19:01:00,44.0,43.0,30.22,NE,40,0.0,0.0,97,0.04,,,0.07,,2013-02-04 03:01:00,
2013-02-03 19:11:00,44.0,43.0,30.22,NE,40,0.0,0.0,97,0.04,,,0.07,,2013-02-04 03:11:00,
2013-02-03 19:21:00,43.0,42.0,30.21,NE,40,0.0,0.0,98,0.03,,,0.07,,2013-02-04 03:21:00,
2013-02-03 19:31:00,43.0,42.0,30.21,NE,40,0.0,1.0,98,0.04,,,0.09,,2013-02-04 03:31:00,
2013-02-03 19:41:00,43.0,42.0,30.21,NE,40,0.0,1.0,98,0.04,,,0.09,,2013-02-04 03:41:00,
2013-02-03 19:52:00,43.0,43.0,30.21,SSW,205,0.0,2.0,99,0.04,,,0.09,,2013-02-04 03:52:00,
2013-02-03 20:01:00,43.0,43.0,30.20,SSW,205,0.0,1.0,99,0.02,,,0.09,,2013-02-04 04:01:00,
2013-02-03 20:11:00,43.0,43.0,30.20,SSW,205,0.0,1.0,99,0.02,,,0.09,,2013-02-04 04:11:00,
2013-02-03 20:21:00,43.0,43.0,30.19,SSW,205,0.0,1.0,99,0.03,,,0.10,,2013-02-04 04:21:00,
2013-02-03 20:31:00,43.0,43.0,30.19,SSW,209,0.0,0.0,99,0.01,,,0.10,,2013-02-04 04:31:00,
2013-02-03 20:41:00,43.0,43.0,30.19,SSW,209,0.0,0.0,99,0.01,,,0.10,,2013-02-04 04:41:00,
2013-02-03 20:52:00,43.0,43.0,30.19,SSW,194,1.0,3.0,100,0.01,,,0.10,,2013-02-04 04:52:00,
2013-02-03 21:03:00,43.0,43.0,30.19,South,188,0.0,1.0,100,0.01,,,0.10,,2013-02-04 05:03:00,
2013-02-03 21:11:00,43.0,43.0,30.19,South,188,0.0,1.0,100,0.01,,,0.10,,2013-02-04 05:11:00,
2013-02-03 21:22:00,43.0,43.0,30.19,South,188,0.0,1.0,100,0.00,,,0.10,,2013-02-04 05:22:00,
2013-02-03 21:33:00,43.0,43.0,30.19,WSW,244,0.0,4.0,100,0.00,,,0.10,,2013-02-04 05:33:00,
2013-02-03 21:41:00,43.0,43.0,30.19,WSW,244,0.0,4.0,100,0.00,,,0.10,,2013-02-04 05:41:00,
2013-02-03 21:52:00,43.0,43.0,30.20,WSW,244,0.0,1.0,100,0.01,,,0.11,,2013-02-04 05:52:00,
2013-02-03 22:01:00,43.0,43.0,30.19,SSW,196,1.0,3.0,100,0.01,,,0.11,,2013-02-04 06:01:00,
2013-02-03 22:11:00,43.0,43.0,30.19,SSW,196,1.0,3.0,100,0.01,,,0.11,,2013-02-04 06:11:00,
2013-02-03 22:21:00,43.0,43.0,30.20,South,171,0.0,3.0,100,0.01,,,0.11,,2013-02-04 06:21:00,
2013-02-03 22:31:00,43.0,43.0,30.20,SW,215,0.0,2.0,100,0.01,,,0.11,,2013-02-04 06:31:00,
2013-02-03 22:41:00,43.0,43.0,30.20,SW,215,0.0,2.0,100,0.01,,,0.11,,2013-02-04 06:41:00,
2013-02-03 22:52:00,43.0,43.0,30.19,SSE,155,0.0,2.0,100,0.00,,,0.11,,2013-02-04 06:52:00,
2013-02-03 23:01:00,43.0,43.0,30.19,SSE,155,0.0,0.0,100,0.00,,,0.11,,2013-02-04 07:01:00,
2013-02-03 23:11:00,43.0,43.0,30.19,SSE,155,0.0,0.0,100,0.00,,,0.11,,2013-02-04 07:11:00,
2013-02-03 23:21:00,42.0,42.0,30.19,SSE,163,0.0,3.0,100,0.00,,,0.11,,2013-02-04 07:21:00,
2013-02-03 23:31:00,43.0,43.0,30.19,SSW,196,1.0,4.0,100,0.00,,,0.11,,2013-02-04 07:31:00,
2013-02-03 23:41:00,43.0,43.0,30.19,SSW,196,1.0,4.0,100,0.00,,,0.11,,2013-02-04 07:41:00,
2013-02-03 23:52:00,43.0,43.0,30.19,SSW,196,0.0,2.0,100,0.00,,,0.11,,2013-02-04 07:52:00,